User: anonymous   Login
Location: ???????
(55.9142°N, 37.8256°E)
Time: 20:48:32
(UTC+00:00)
Language:

GP-B - Orbit

View from above orbital plane
View from above orbital plane
View from above satellite
View from above satellite

Ground track
Ground track

The orbit data is extracted from the following two-line orbital elements,

1 28230U 04014A   24170.62377727  .00001053  00000-0  13438-3 0  9990
2 28230  89.8293  65.0927 0003073  75.4787 284.6778 14.80857366544425
Epoch (UTC): 18 June 2024 14:58:14
Eccentricity: 0.0003073
inclination: 89.8293°
perigee height: 624 km
apogee height: 629 km
right ascension of ascending node: 65.0927°
argument of perigee: 75.4787°
revolutions per day: 14.80857366
mean anomaly at epoch: 284.6778°
orbit number at epoch: 54442

The dashed part of the orbit path shows where the satellite is in the earth's shadow,  

DLR